Edinburg, TX

3:53 PM CST on February 24, 2017 (GMT -0600)
Edinburg

Weather History for KEBG - April, 2013

Change the Weather History Date:

Friday, April 19, 2013

  Actual Average (KMFE) Record (KMFE)
Temperature  
Mean Temperature 64 °F -  
Max Temperature 73 °F 84 °F 100 °F (1987)
Min Temperature 54 °F 65 °F 53 °F (2008)
Degree Days  
Heating Degree Days 1    
Growing Degree Days 14 (Base 50)    
Moisture  
Dew Point 28 °F    
Average Humidity 29    
Maximum Humidity 50    
Minimum Humidity 11    
Precipitation  
Precipitation 0.00 in - - ()
Sea Level Pressure  
Sea Level Pressure 30.21 in    
Wind  
Wind Speed 15 mph (NE)    
Max Wind Speed 29 mph    
Max Gust Speed 34 mph    
Visibility 7 miles    
Events      
Averages and records for this station are not official NWS values.
T = Trace of Precipitation, MM = Missing Value Source: NWS Daily Summary

Daily Weather History Graph

Daily Weather History Graph

Search for Another Location

Airport or City:

Trip Planner

Search our weather history database for the weather conditions in past years. The results will help you decide how hot, cold, wet, or windy it might be!

Date:

Astronomy

Apr. 19, 2013 Rise Set
Actual Time 7:04 AM CDT 7:58 PM CDT
Civil Twilight 6:41 AM CDT 8:22 PM CDT
Nautical Twilight 6:12 AM CDT 8:50 PM CDT
Astronomical Twilight 5:44 AM CDT 9:19 PM CDT
Moon 2:18 PM CDT (4/19) 2:45 AM CDT (4/19)
Length of Visible Light 13h 41m
Length of Day
12h 53m
First Quarter, 62% of the Moon is Illuminated
Apr 19
First Quarter
Apr 25
Full
May 2
Last Quarter
May 9
New
May 17
First Quarter

Hourly Weather History & Observations

Time (CDT) Temp. Dew Point Humidity Pressure Visibility Wind Dir Wind Speed Gust Speed Precip Events Conditions
12:15 AM 65.3 °F 44.8 °F 47% 30.05 in 7.0 mi NNE 15.0 mph 21.9 mph N/A   Scattered Clouds
12:35 AM 64.8 °F 44.2 °F 47% 30.07 in 7.0 mi NNE 17.3 mph - N/A   Clear
12:55 AM 64.6 °F 44.1 °F 47% 30.07 in 7.0 mi NNE 16.1 mph 24.2 mph N/A   Mostly Cloudy
1:15 AM 64.4 °F 43.3 °F 46% 30.07 in 7.0 mi NNE 17.3 mph 26.5 mph N/A   Scattered Clouds
1:55 AM 63.7 °F 42.1 °F 45% 30.07 in 10.0 mi NNE 20.7 mph 25.3 mph N/A   Clear
2:15 AM 63.5 °F 41.0 °F 44% 30.09 in 7.0 mi NNE 20.7 mph - N/A   Clear
2:35 AM 63.5 °F 41.0 °F 44% 30.09 in 7.0 mi NNE 23.0 mph 29.9 mph N/A   Clear
2:55 AM 63.0 °F 40.8 °F 44% 30.10 in 7.0 mi NNE 16.1 mph 21.9 mph N/A   Scattered Clouds
3:15 AM 63.1 °F 39.4 °F 42% 30.10 in 7.0 mi NNE 21.9 mph 28.8 mph N/A   Mostly Cloudy
3:35 AM 63.0 °F 39.6 °F 42% 30.10 in 7.0 mi NNE 20.7 mph 28.8 mph N/A   Overcast
3:55 AM 62.8 °F 39.2 °F 42% 30.10 in 10.0 mi NNE 18.4 mph 31.1 mph N/A   Overcast
4:15 AM 62.6 °F 38.3 °F 41% 30.11 in 7.0 mi NNE 23.0 mph 33.4 mph N/A   Overcast
4:35 AM 62.6 °F 38.3 °F 41% 30.12 in 10.0 mi North 19.6 mph 26.5 mph N/A   Overcast
4:55 AM 62.6 °F 38.1 °F 40% 30.13 in 10.0 mi North 18.4 mph - N/A   Overcast
5:15 AM 62.2 °F 37.9 °F 41% 30.13 in 7.0 mi NNE 21.9 mph 25.3 mph N/A   Mostly Cloudy
5:35 AM 62.2 °F 36.3 °F 38% 30.14 in 7.0 mi NNE 18.4 mph 23.0 mph N/A   Overcast
5:55 AM 62.1 °F 35.1 °F 37% 30.15 in 7.0 mi NNE 19.6 mph 28.8 mph N/A   Overcast
6:15 AM 61.9 °F 34.7 °F 36% 30.16 in 10.0 mi North 18.4 mph 25.3 mph N/A   Overcast
6:35 AM 61.7 °F 32.0 °F 33% 30.17 in 7.0 mi North 28.8 mph 34.5 mph N/A   Overcast
6:55 AM 61.3 °F 32.0 °F 33% 30.19 in 7.0 mi North 20.7 mph 29.9 mph N/A   Overcast
7:15 AM 61.0 °F 35.1 °F 38% 30.20 in 0.8 mi North 19.6 mph - N/A   Haze
7:35 AM 60.6 °F 30.7 °F 32% 30.21 in 5.0 mi North 21.9 mph 25.3 mph N/A   Haze
7:55 AM 60.4 °F 30.2 °F 32% 30.24 in 7.0 mi North 15.0 mph 25.3 mph N/A   Overcast
8:15 AM 60.3 °F 29.3 °F 31% 30.25 in 7.0 mi North 17.3 mph 23.0 mph N/A   Overcast
8:35 AM 60.3 °F 28.2 °F 30% 30.27 in 7.0 mi North 20.7 mph 26.5 mph N/A   Overcast
8:55 AM 60.4 °F 27.3 °F 28% 30.28 in 5.0 mi NNE 18.4 mph 27.6 mph N/A   Haze
9:15 AM 60.4 °F 30.0 °F 32% 30.29 in 7.0 mi North 13.8 mph - N/A   Overcast
9:35 AM 60.4 °F 28.2 °F 29% 30.30 in 7.0 mi NNE 15.0 mph - N/A   Overcast
9:55 AM 60.8 °F 28.2 °F 29% 30.31 in 7.0 mi NNE 13.8 mph - N/A   Overcast
10:15 AM 61.2 °F 27.5 °F 28% 30.31 in 7.0 mi North 17.3 mph - N/A   Overcast
10:35 AM 62.1 °F 26.1 °F 25% 30.32 in 7.0 mi North 17.3 mph 21.9 mph N/A   Overcast
10:55 AM 62.2 °F 25.5 °F 25% 30.33 in 7.0 mi North 15.0 mph 21.9 mph N/A   Mostly Cloudy
11:15 AM 62.8 °F 24.1 °F 23% 30.33 in 7.0 mi North 17.3 mph 23.0 mph N/A   Mostly Cloudy
11:35 AM 63.5 °F 23.2 °F 21% 30.33 in 7.0 mi NNE 13.8 mph 21.9 mph N/A   Overcast
11:55 AM 64.4 °F 24.1 °F 22% 30.33 in 5.0 mi NNE 13.8 mph 18.4 mph N/A   Haze
12:15 PM 65.3 °F 20.7 °F 18% 30.33 in 7.0 mi NE 17.3 mph 23.0 mph N/A   Mostly Cloudy
12:35 PM 65.5 °F 18.1 °F 16% 30.33 in 7.0 mi NE 17.3 mph 21.9 mph N/A   Overcast
12:55 PM 66.4 °F 18.0 °F 16% 30.32 in 7.0 mi NE 13.8 mph 20.7 mph N/A   Mostly Cloudy
1:15 PM 68.2 °F 17.8 °F 15% 30.31 in 7.0 mi NE 16.1 mph 19.6 mph N/A   Overcast
1:35 PM 67.8 °F 17.2 °F 14% 30.30 in 7.0 mi NNE 11.5 mph 19.6 mph N/A   Overcast
1:55 PM 68.4 °F 15.8 °F 13% 30.29 in 7.0 mi NNE 12.7 mph 20.7 mph N/A   Overcast
2:15 PM 69.4 °F 16.9 °F 13% 30.28 in 7.0 mi ENE 10.4 mph 18.4 mph N/A   Mostly Cloudy
2:35 PM 71.2 °F 17.6 °F 13% 30.27 in 7.0 mi NE 12.7 mph 18.4 mph N/A   Mostly Cloudy
2:55 PM 70.0 °F 16.7 °F 13% 30.26 in 5.0 mi ENE 10.4 mph 19.6 mph N/A   Haze
3:15 PM 71.6 °F 15.6 °F 12% 30.25 in 7.0 mi NE 9.2 mph - N/A   Scattered Clouds
3:35 PM 71.6 °F 16.7 °F 12% 30.24 in 7.0 mi NE 9.2 mph 17.3 mph N/A   Scattered Clouds
3:55 PM 72.3 °F 15.6 °F 12% 30.23 in 7.0 mi NNE 12.7 mph 16.1 mph N/A   Clear
4:15 PM 72.9 °F 15.1 °F 11% 30.22 in 7.0 mi NNE 6.9 mph - N/A   Clear
4:35 PM 73.2 °F 15.8 °F 11% 30.21 in 7.0 mi ENE 5.8 mph - N/A   Clear
4:55 PM 73.2 °F 16.2 °F 11% 30.20 in 7.0 mi North 3.5 mph - N/A   Clear
5:15 PM 73.6 °F 15.8 °F 11% 30.20 in 10.0 mi ENE 6.9 mph - N/A   Clear
5:35 PM 72.7 °F 15.8 °F 11% 30.19 in 7.0 mi North 3.5 mph - N/A   Clear
5:55 PM 72.9 °F 15.4 °F 11% 30.19 in 7.0 mi SE 3.5 mph - N/A   Clear
6:15 PM 72.9 °F 15.6 °F 11% 30.18 in 7.0 mi Calm Calm - N/A   Clear
6:35 PM 72.7 °F 15.6 °F 11% 30.18 in 7.0 mi NE 4.6 mph - N/A   Clear
6:55 PM 72.5 °F 15.4 °F 11% 30.18 in 10.0 mi NE 4.6 mph - N/A   Clear
7:15 PM 71.8 °F 15.3 °F 12% 30.18 in 7.0 mi Calm Calm - N/A   Clear
7:35 PM 71.6 °F 15.4 °F 12% 30.18 in 7.0 mi Calm Calm - N/A   Clear
7:55 PM 67.8 °F 26.6 °F 21% 30.18 in 7.0 mi SSE 8.1 mph - N/A   Clear
8:15 PM 66.4 °F 28.8 °F 24% 30.18 in 7.0 mi SSE 8.1 mph - N/A   Clear
8:35 PM 64.8 °F 30.0 °F 27% 30.19 in 10.0 mi SSE 6.9 mph - N/A   Clear
8:55 PM 63.0 °F 32.0 °F 31% 30.20 in 7.0 mi SE 8.1 mph - N/A   Clear
9:15 PM 62.2 °F 33.8 °F 35% 30.21 in 7.0 mi SE 9.2 mph - N/A   Clear
9:35 PM 61.5 °F 34.7 °F 37% 30.21 in 7.0 mi SE 6.9 mph - N/A   Clear
9:55 PM 60.1 °F 34.9 °F 39% 30.22 in 7.0 mi SE 6.9 mph - N/A   Clear
10:15 PM 58.5 °F 35.4 °F 42% 30.22 in 5.0 mi SSE 5.8 mph - N/A   Haze
10:35 PM 57.7 °F 35.6 °F 44% 30.23 in 7.0 mi SSE 4.6 mph - N/A   Scattered Clouds
10:55 PM 57.4 °F 35.6 °F 44% 30.23 in 7.0 mi SSE 3.5 mph - N/A   Scattered Clouds
11:15 PM 56.3 °F 35.4 °F 46% 30.23 in 7.0 mi ESE 3.5 mph - N/A   Clear
11:35 PM 55.6 °F 34.9 °F 46% 30.23 in 7.0 mi SE 3.5 mph - N/A   Scattered Clouds
11:55 PM 54.9 °F 36.7 °F 50% 30.24 in 10.0 mi SE 3.5 mph - N/A   Scattered Clouds